Regional Weather Roundup
Issued by NWS

Home | Current Version | Previous Version | Graphics & Text | Print | Product List | Glossary On
Versions: 1 2 3 4 5 6 7 8 9 10 11 12 13 14 15 16 17 18 19 20 21 22 23 24 25 26 27
000
ASUS45 KCYS 230010
RWRWY

WYOMING REGIONAL WEATHER ROUNDUP
NATIONAL WEATHER SERVICE CHEYENNE WY
600 PM MDT FRI JUL 22 2016

NOTE:  "FAIR" INDICATES FEW OR NO CLOUDS BELOW 12,000 FEET
WITH NO SIGNIFICANT WEATHER AND/OR OBSTRUCTIONS TO VISIBILITY.

WYZ001-230100-
YELLOWSTONE NATIONAL PARK

CITY           SKY/WX    TMP DP  RH WIND       PRES   REMARKS
LK YELLOWSTONE   N/A     77  28  16 SW8G22    30.29F
6HR MIN TEMP:  76; 6HR MAX TEMP:  81;

W YELLOWSTONE  NOT AVBL

$$
WYZ002>013-054>058-071-098>099-230100-
NORTHERN WYOMING

CITY           SKY/WX    TMP DP  RH WIND       PRES   REMARKS
JACKSON        SUNNY     84  34  16 W28       30.18S
CODY           FAIR      88  41  19 S15       30.02F
GREYBULL       FAIR      91  42  18 W14       29.93S
6HR MIN TEMP:  91; 6HR MAX TEMP: 102;

WORLAND        FAIR      93  41  16 NW6       29.94F
6HR MIN TEMP:  91; 6HR MAX TEMP: 102;

SHERIDAN       FAIR      93  45  19 W12       29.90S
6HR MIN TEMP:  93; 6HR MAX TEMP: 102; 6HR PCP: TRACE;

BUFFALO        FAIR      92  39  15 W9        29.99F
6HR MIN TEMP:  92; 6HR MAX TEMP: 101;

GILLETTE       FAIR      93  49  22 SE21      29.93F HX  90
6HR MIN TEMP:  93; 6HR MAX TEMP: 102;

HULETT         FAIR      93  46  20 E7        29.97F
NEWCASTLE      FAIR      88  45  22 SE17      30.01F

$$
WYZ014>020-022>026-101>103-230100-
CENTRAL WYOMING

CITY           SKY/WX    TMP DP  RH WIND       PRES   REMARKS
BIG PINEY      FAIR      83  46  27 S13       30.24F
6HR MIN TEMP:  80; 6HR MAX TEMP:  90; 6HR PCP: TRACE;

PINEDALE       LGT RAIN  70  54  56 MISG      30.30R
DUBOIS         MOCLDY    73  36  25 N5G18     30.25F
LANDER         FAIR      81  43  26 S6        30.13S
6HR MIN TEMP:  77; 6HR MAX TEMP:  96; 6HR PCP: TRACE;

RIVERTON       PTSUNNY   84  39  20 SW21G32   30.12F
6HR MIN TEMP:  83; 6HR MAX TEMP:  95;

CASPER         FAIR      95  37  13 VRB7      30.04F HX  90
6HR MIN TEMP:  87; 6HR MAX TEMP:  96;

DOUGLAS          N/A    N/A N/A N/A MISG      30.03F

$$
WYZ021-027>030-104>119-230100-
SOUTHERN WYOMING

CITY           SKY/WX    TMP DP  RH WIND       PRES   REMARKS
EVANSTON       FAIR      87  35  15 W15G25    30.26F
6HR MIN TEMP:  83; 6HR MAX TEMP:  90;

KEMMERER         N/A     82  32  16 W14G22    30.27F
FORT BRIDGER   FAIR      85  34  16 W13G22    30.28F
ROCK SPRINGS   FAIR      83  39  21 NW7       30.26F
6HR MIN TEMP:  80; 6HR MAX TEMP:  89;

DIXON          MOCLDY    85  39  19 W13       30.25S
RAWLINS        FAIR      88  37  16 W18       30.23F
6HR MIN TEMP:  84; 6HR MAX TEMP:  92;

SARATOGA       FAIR      86  34  15 SW10G18   30.26F
LARAMIE        FAIR      84  42  22 VRB6      30.25F
6HR MIN TEMP:  80; 6HR MAX TEMP:  87;

CHEYENNE       FAIR      85  45  24 SW6       30.17F
6HR MIN TEMP:  77; 6HR MAX TEMP:  91; 6HR PCP:  0.02;

TORRINGTON     PTSUNNY   86  58  38 E24       30.00S
6HR MIN TEMP:  86; 6HR MAX TEMP: 102;

PINE BLUFFS    FAIR      86  45  23 N3        30.10S

$$




USA.gov is the U.S. government's official web portal to all federal, state and local government web resources and services.